STARLINK-32743, 62480

Orbit data source: Space-Track

STARLINK-32743, 62480 is a payload satellite owned by SpaceX/Seattle (US) in LEO that was launched on Tue, 31 Dec 2024 UTC via an FALCON 9 launch vehicle from the Air Force Eastern Test Range (AFETR). Payload-class satellites include a variety of spacecraft equipped with specific instruments for various scientific and technological missions. These include communications satellites like Starlink; space stations such as the ISS; scientific satellites like the Hubble; Earth observation satellites from companies like Planet Labs, Umbra, and HawkEye 360; GPS; miniature CubeSats for education and research; and military/defense satellites.

Loading next visibility...
Identifier
62480, 2024-254U
Orbit
LEO
Country
Flag of USUS
Related business
Manufacturer
SpaceX/Seattle
Mission
Operational Commercial Communications
Bus & Motor
STARLINK V2M, Unknown motor
Mass
730 kg wet, ~700 kg dry
Launch date (UTC)
2024-12-31 (2 years ago)
Launch vehicle
FALCON 9
Launch site
Air Force Eastern Test Range (AFETR)
Object type
Payload
Rocket body
Debris
Shape & HBR
Box + 2 Pan, 17.7 m
Radar Cross Section
33.884 m², Large (>1 m²)

Expand to show TLE details & history
Last TLE update: 1 day ago

TLE from 1 day ago
0 STARLINK-32743
1 62480U 24254U   26257.42818232  .00014238  00000-0  52584-3 0  9994
2 62480  43.0015  29.9898 0001264 222.8957 137.1796 15.27585639 96525
Epoch: 2026-09-14T10:16Z
TLE epoch observation values (Epoch: 2026-09-14T10:16:34.952Z)
Latitude
-0.00003°
Longitude
-117.56449°
Altitude
483.444 km
Speed
7.625 km/s
True Right ascension
01h 59m 57s
True Declination
0° 00' 00"
Sunlit
Object was in full shadow at epoch
Visualization orbit readout
Latitude
Unknown
Longitude
Unknown
Altitude
Unknown
Speed
Unknown
Apparent Right ascension
Unknown
Apparent Declination
Unknown
Sunlit
N/A
Visualization observer readout
Local Sidereal Time
03:45:05
Azimuth
Unknown
Elevation
Unknown
Doppler factor
Unknown
Orbital elements
Apogee altitude
485.845 km
Perigee altitude
484.11 km
Semi-major axis
6,863.114 km
Eccentricity
0.00013
Inclination
43.0015°
RAAN
29.9898°
Arg. of periapsis
222.8957°
True anomaly
137.18944°
Mean anomaly
137.1796°
Eccentric anomaly
137.18452°
Mean motion
3.81734 °/min
Orbital period
94.31 mins
BSTAR
0.00052584
Loading maneuver chart data...
Computing Atmospheric mass density...
Loading historical data...
Loading historical data...
Loading historical data...
Loading historical data...
Loading historical data...
Loading historical data...
Loading historical data...

Documentation

Showing up to 5 results
|